Theta_e
320 321 320 319 319 319 319 318 318 318 318 317 317 317 316 316 317 316 317 317 317 317 318 318 320 320 318 317 316 329 338 332 319 317 318 316 311 310 306 308 310 308 309 311 312 311 311
320 320 320 319 319 319 318 318 318 318 318 318 316 316 316 316 315 316 316 316 317 316 316 318 320 319 317 310 327 326 322 318 317 317 316 314 312 313 310 309 309 310 310 309 310 310 310
321 321 320 320 319 318 318 318 318 318 317 317 317 316 316 315 315 316 316 317 316 316 317 319 319 319 315 317 325 325 321 319 319 317 313 315 316 312 311 307 312 310 306 308 309 310 309
320 320 320 319 319 319 318 318 318 317 317 317 317 316 315 315 316 317 318 319 319 319 319 319 319 319 316 328 326 323 322 321 321 320 318 318 317 313 311 314 310 306 306 301 308 309 310
320 319 319 319 318 317 317 317 317 317 316 317 317 315 315 316 317 318 318 318 318 319 320 320 318 319 318 321 318 322 322 317 318 318 319 319 314 309 310 306 304 305 299 302 304 310 309
319 319 319 318 318 317 316 317 317 316 315 315 315 315 316 316 317 317 317 317 319 318 320 321 323 318 323 315 319 320 322 320 316 316 315 314 312 308 307 306 299 303 302 304 304 308 309
319 319 318 318 318 317 316 316 316 315 315 315 314 314 313 315 316 317 315 319 318 317 323 316 317 316 319 323 323 318 320 318 317 315 309 312 307 305 308 310 310 309 307 305 307 313 310
318 318 318 318 318 316 316 316 315 314 314 314 313 313 313 313 315 316 316 316 321 322 314 321 320 319 321 321 312 315 320 313 311 308 312 310 305 312 311 310 307 307 305 304 308 312 310
317 317 317 317 316 316 316 315 314 314 314 313 312 312 313 313 315 314 318 320 326 325 314 318 319 317 318 319 313 313 317 315 310 308 310 306 307 311 307 306 304 304 303 303 303 308 311
317 317 317 316 315 315 316 314 314 313 313 313 312 312 312 313 311 323 322 327 327 328 309 311 312 316 318 318 313 319 319 315 312 308 310 308 311 308 306 304 305 300 304 302 302 301 297
316 316 316 315 315 315 315 313 313 313 313 312 312 312 312 311 315 318 323 325 326 325 297 312 312 322 319 315 315 314 320 315 309 310 310 306 308 306 304 304 305 301 303 301 300 298 298
316 316 316 315 315 315 313 313 313 313 313 313 312 312 311 315 316 320 325 325 322 307 297 307 312 310 311 314 314 316 315 318 317 311 312 309 313 310 308 307 306 305 301 301 301 299 292
316 316 315 315 315 314 313 312 312 312 312 313 312 312 310 319 320 327 325 320 305 300 311 307 307 309 309 309 310 311 310 309 306 301 302 306 307 309 308 303 305 303 299 292 292 292 292
315 315 315 315 314 313 313 312 312 312 312 312 310 309 312 317 318 324 322 311 300 306 307 309 309 309 305 309 308 309 307 305 310 308 303 299 298 307 307 304 299 300 300 293 287 288 293
314 314 315 315 314 313 312 312 312 311 311 310 308 322 319 323 320 323 315 302 303 307 310 308 307 304 304 307 305 306 306 305 307 307 301 298 298 306 306 305 303 298 296 302 296 297 292
314 314 314 314 314 313 312 312 312 312 311 310 313 320 319 323 324 319 311 302 307 312 313 310 304 305 301 304 304 303 302 306 305 307 308 302 296 303 304 304 304 301 303 295 297 289 287
313 313 314 313 313 312 312 312 312 312 310 308 317 318 325 327 326 316 306 306 308 313 315 308 307 304 304 303 304 302 302 304 305 304 305 303 301 299 303 300 299 299 299 300 298 295 289
313 313 313 314 313 312 312 311 311 310 308 312 317 312 326 327 309 309 307 309 306 310 312 309 309 306 305 305 303 302 300 303 307 306 301 305 302 296 299 304 306 304 301 300 294 294 297
312 313 313 313 312 312 311 311 311 310 309 310 311 313 325 324 305 304 308 309 311 311 310 308 305 307 307 304 301 303 304 307 306 304 302 306 300 293 294 299 304 300 302 302 302 303 295
312 312 313 313 312 311 311 310 310 310 309 312 313 305 313 314 312 309 307 306 307 311 308 311 307 308 306 304 306 303 303 306 306 305 314 310 303 299 292 296 299 298 301 302 301 295 295
312 312 313 312 312 312 312 311 310 310 309 314 313 308 311 302 305 307 307 305 302 302 307 310 306 305 305 302 303 302 304 305 306 308 306 306 297 299 299 300 300 299 299 299 297 298 295
312 312 312 312 312 311 312 311 310 310 308 316 308 308 310 306 309 307 304 303 301 304 306 305 303 305 305 303 304 302 304 305 304 305 304 309 298 300 297 300 300 297 299 300 300 299 298
312 311 311 311 311 311 312 311 310 310 310 313 315 315 310 304 307 305 305 304 304 306 307 308 307 305 304 305 309 310 311 310 309 307 307 306 302 299 294 300 299 295 298 299 300 302 300
310 310 311 311 310 310 311 311 310 310 310 311 314 314 308 302 305 305 305 305 303 304 302 305 305 305 309 314 313 312 310 309 309 308 310 306 306 302 297 298 288 300 305 303 301 303 303
310 311 311 310 309 309 311 311 311 310 310 310 314 313 309 301 305 306 305 304 306 307 305 306 307 312 314 309 303 301 301 303 303 305 306 309 305 297 293 293 296 298 302 301 299 299 305
310 310 310 310 310 310 311 311 311 310 310 311 312 320 313 304 305 307 303 305 303 304 305 307 312 316 311 304 300 295 293 297 297 300 306 304 308 298 293 289 288 299 305 307 305 296 304
308 308 308 308 307 308 309 310 310 310 311 310 310 321 313 305 309 308 304 304 309 307 304 308 309 308 312 303 298 296 295 301 294 295 298 299 300 294 295 294 296 300 306 308 293 294 300
307 307 307 307 306 306 307 308 309 310 311 310 309 317 314 309 311 311 312 310 310 310 305 310 306 306 305 300 299 299 298 300 299 301 300 298 296 296 297 292 288 300 302 295 295 301 300
306 306 307 306 307 307 307 308 309 310 311 310 309 321 320 310 310 315 317 317 315 315 311 312 309 308 307 303 303 304 299 301 301 295 304 296 297 294 294 292 297 299 298 298 298 298 300
Wind_Speed
17 17 18 18 19 18 18 17 17 16 15 15 16 15 14 14 13 12 13 13 12 12 12 11 10 10 8 10 14 12 11 9 10 12 15 19 18 16 15 17 17 17 15 16 14 10 12
17 17 18 18 18 18 18 18 18 17 16 14 15 15 14 14 13 13 13 12 11 12 11 11 9 8 6 12 12 14 13 13 13 15 15 13 12 14 16 14 13 12 14 12 19 12 11
19 19 19 19 18 18 18 19 19 18 17 16 14 15 14 14 13 13 13 11 11 12 11 10 7 6 10 19 11 14 13 14 18 19 15 15 14 10 10 12 15 12 8 11 14 11 8
19 20 20 19 19 19 19 20 19 19 18 17 15 16 15 14 13 13 13 12 12 13 12 9 5 9 10 17 12 13 14 14 11 12 9 9 9 12 15 14 3 11 13 15 18 18 12
20 19 20 20 20 20 20 20 20 19 20 18 16 16 15 15 14 13 12 11 14 13 10 7 7 9 10 6 12 13 14 11 10 7 8 2 8 13 14 13 12 14 13 18 5 12 10
20 21 20 21 21 21 21 20 20 21 21 20 18 16 15 15 14 12 11 10 7 5 7 10 11 8 11 14 14 13 14 13 10 10 10 9 9 12 14 13 11 9 16 15 11 12 6
21 21 21 21 21 21 21 21 21 23 22 21 20 18 17 15 14 11 12 6 7 7 13 14 15 15 16 11 10 14 14 13 13 11 13 14 13 16 12 2 9 13 9 10 9 12 1
21 22 22 23 23 23 22 22 22 23 22 22 21 19 18 16 14 10 8 8 9 9 9 23 23 22 5 12 11 16 16 12 12 15 17 12 16 5 5 7 8 11 10 10 6 11 6
21 22 23 23 23 23 23 24 24 23 21 23 22 20 19 16 13 7 13 18 16 11 10 16 22 16 13 12 15 17 16 17 14 17 13 13 9 11 3 7 5 8 10 13 15 5 8
22 23 24 24 24 24 24 25 25 25 24 22 23 21 17 14 5 10 16 21 15 6 7 12 19 18 16 17 15 20 19 18 10 16 12 8 9 2 2 6 6 8 10 13 12 12 11
22 23 24 24 25 24 25 26 26 26 23 24 22 20 16 8 13 9 11 3 8 3 5 13 18 11 11 18 11 9 11 17 16 12 6 6 6 5 6 4 7 8 12 10 13 14 15
23 23 24 24 25 25 27 28 27 26 26 24 24 20 15 8 7 18 18 9 5 7 7 12 14 12 14 15 13 12 12 10 16 9 15 9 4 0 5 5 6 8 10 15 15 13 13
22 23 23 24 25 27 29 29 27 30 28 27 24 17 9 9 11 9 10 6 9 14 9 7 15 17 17 17 11 10 14 16 13 10 12 13 13 10 1 10 11 8 10 10 12 12 14
22 23 24 25 26 29 29 30 31 31 31 31 29 17 13 10 12 14 7 9 16 16 20 6 20 14 16 13 10 12 13 14 19 17 11 11 13 20 11 10 5 11 8 8 16 14 14
23 24 25 26 27 29 30 32 33 32 33 33 33 5 6 8 15 9 7 12 15 18 9 14 17 9 11 10 3 8 10 15 15 9 10 9 6 13 7 1 2 5 9 10 8 15 15
23 24 25 26 27 30 31 32 33 34 35 33 8 9 11 9 11 8 9 16 21 12 6 9 25 11 12 14 14 11 15 10 17 5 3 7 10 9 10 2 7 8 12 8 8 10 15
22 24 24 26 27 30 32 33 33 34 37 36 7 7 6 7 6 8 11 16 20 20 16 9 17 12 13 10 11 7 9 3 1 5 1 8 7 14 6 7 11 8 11 10 11 9 11
22 23 24 25 28 30 32 33 34 32 37 12 7 6 7 6 7 9 13 20 20 16 1 5 7 11 13 14 10 11 7 15 8 5 5 4 3 11 15 15 10 6 10 14 9 10 11
22 23 23 24 28 29 30 33 33 31 22 11 9 12 7 6 9 11 16 19 18 19 16 7 5 10 9 14 10 8 9 5 8 1 2 3 5 9 14 12 12 4 9 13 12 8 13
22 22 23 24 25 28 28 31 32 35 25 10 7 9 2 3 8 13 12 12 16 9 11 27 8 9 12 10 8 8 9 3 6 3 8 3 6 9 12 16 4 12 15 13 9 9 13
21 22 22 24 23 24 27 28 30 34 38 7 6 8 11 7 13 13 11 13 15 13 15 27 9 10 11 8 13 13 11 12 11 13 7 4 10 14 16 18 20 19 19 15 15 15 16
20 21 22 24 23 24 24 25 27 31 41 4 7 7 11 14 15 10 10 12 13 13 10 4 4 10 10 10 13 13 12 7 13 14 12 10 10 12 17 17 18 21 20 21 19 19 21
20 21 22 23 23 23 22 22 23 25 25 6 9 12 7 10 15 12 3 9 12 14 12 9 12 13 10 11 9 6 15 7 9 11 13 11 11 13 17 19 19 17 16 20 21 16 16
22 23 23 23 23 23 21 20 20 20 15 8 11 9 9 10 14 13 10 8 9 10 9 12 13 11 11 12 12 12 11 10 8 11 9 11 12 11 14 16 20 15 20 11 14 23 15
23 21 21 22 24 23 20 18 18 18 17 10 10 9 7 9 12 9 13 11 9 9 11 11 7 10 11 9 9 10 11 13 17 19 11 7 5 7 8 15 19 16 8 15 17 20 19
21 21 21 21 21 21 20 18 17 18 17 10 11 8 7 7 5 12 13 12 6 12 9 10 6 4 5 6 9 13 12 17 6 6 4 11 8 5 6 18 19 7 18 14 5 13 27
21 22 22 22 23 23 21 20 18 17 17 11 8 10 7 8 8 7 9 9 7 7 7 10 13 4 2 7 9 10 12 13 7 14 12 8 6 14 16 15 10 15 17 13 6 7 18
22 22 22 23 23 23 22 21 18 17 16 9 10 11 8 7 12 7 6 8 10 10 9 14 8 3 6 7 9 8 9 9 7 6 10 5 6 5 8 6 5 19 10 6 6 11 13
23 23 23 25 22 22 23 21 19 16 14 10 8 5 4 6 8 13 9 4 5 8 6 7 7 5 6 7 4 8 8 2 9 5 11 5 5 4 4 1 4 5 5 4 3 10 11
Wind_Direction
350 350 347 346 343 339 336 336 331 329 328 330 325 320 314 306 301 295 289 286 286 290 291 290 300 310 290 237 248 136 150 148 181 201 227 230 216 210 219 226 219 225 244 246 272 257 275
353 350 349 348 344 341 340 336 335 333 329 323 326 322 313 306 301 292 287 284 282 280 279 284 291 306 248 259 101 143 155 164 188 205 237 235 223 214 235 259 248 232 238 248 252 235 225
357 352 351 351 347 344 341 340 337 334 331 327 323 323 315 307 301 292 285 275 269 265 265 268 281 270 261 245 142 169 155 187 183 209 205 222 241 244 244 264 253 270 254 261 248 233 234
357 353 353 352 350 347 345 341 339 337 332 327 324 323 318 310 299 292 287 280 271 269 264 258 256 241 260 209 241 169 192 209 176 234 276 202 245 269 252 282 254 250 238 249 229 209 212
355 353 354 353 351 348 345 342 339 337 335 331 327 323 319 310 305 296 287 282 281 273 249 216 214 227 260 125 215 186 204 190 186 207 223 326 240 232 233 238 247 215 235 221 142 144 227
353 354 353 353 350 347 345 342 340 341 338 334 329 325 320 314 307 297 288 273 312 203 209 195 266 240 250 209 192 201 200 223 184 199 211 205 221 225 230 229 235 272 218 222 167 150 236
355 353 352 351 350 348 345 344 342 344 341 337 332 328 323 317 310 301 299 209 199 192 226 223 173 223 157 190 161 184 196 228 203 199 224 192 225 221 210 221 358 322 357 354 153 121 44
355 353 351 351 349 347 346 345 344 345 342 338 333 329 323 317 312 301 272 249 338 322 277 219 256 220 226 145 179 175 183 209 213 219 215 200 229 99 38 356 332 318 312 294 284 132 179
354 351 350 349 346 344 345 346 347 344 340 338 333 328 321 316 315 266 234 256 300 304 277 245 219 223 196 197 184 173 186 220 212 225 219 255 40 77 329 312 293 289 299 320 318 300 163
354 352 349 347 345 344 344 346 345 343 340 335 332 327 323 318 283 255 230 232 243 8 270 201 200 211 173 207 199 173 190 227 220 252 231 242 75 200 233 276 294 282 325 328 309 308 276
353 351 348 345 344 343 344 344 342 339 334 335 330 324 315 290 323 281 311 290 7 278 280 289 186 157 181 218 152 187 200 227 260 247 223 19 151 165 233 309 40 302 304 307 286 273 271
352 349 347 345 343 344 345 342 339 336 329 326 327 321 316 218 221 252 283 295 253 237 196 249 161 188 203 222 174 170 209 230 275 285 263 268 56 311 277 352 304 298 287 264 252 247 249
348 346 346 345 344 346 345 341 337 334 328 325 319 309 270 299 245 261 241 253 241 237 166 237 193 196 198 199 211 178 194 204 237 229 243 245 212 204 126 269 246 209 261 268 254 227 239
346 346 346 345 345 346 344 341 339 334 329 326 317 307 212 241 261 279 268 246 245 237 229 128 277 177 209 221 190 205 237 243 215 239 278 275 229 215 143 244 340 306 296 298 305 301 312
346 347 347 345 345 346 345 342 339 335 332 331 312 186 229 230 227 261 257 234 231 255 62 324 294 211 208 229 302 252 225 260 271 9 232 272 298 69 129 148 240 330 237 293 300 284 285
346 346 345 344 345 346 345 344 340 338 336 333 307 281 241 196 175 216 239 255 261 287 300 209 243 195 227 233 190 217 257 237 243 63 81 295 291 194 160 215 248 247 289 293 234 262 264
344 344 343 343 347 347 346 344 342 341 338 323 269 253 113 159 163 229 240 248 251 265 173 191 283 292 293 293 274 260 248 198 80 105 311 283 250 265 178 206 269 196 230 228 255 285 300
342 343 342 342 348 350 348 345 340 349 340 346 301 288 125 179 219 235 244 248 264 287 267 254 273 294 301 303 283 263 273 290 128 135 202 309 290 262 255 243 238 284 316 309 291 268 249
341 341 342 344 349 349 349 347 342 343 3 315 298 295 139 218 242 237 249 267 294 354 296 252 226 268 267 269 278 274 284 64 102 181 234 147 227 257 256 257 202 235 287 270 272 292 272
339 340 341 344 349 350 348 348 344 336 347 315 280 313 128 260 256 290 314 316 309 5 343 319 282 246 264 255 267 261 263 245 130 194 65 30 283 277 279 295 311 238 231 247 232 258 270
338 338 339 344 347 347 349 349 345 339 332 308 295 345 14 309 333 331 304 297 295 296 253 226 254 249 258 240 249 253 223 257 174 140 174 194 256 269 272 279 289 288 283 273 257 259 244
334 335 338 344 346 348 347 350 348 345 332 315 3 336 336 299 295 304 286 274 279 282 301 294 284 290 296 259 263 257 250 222 287 177 197 197 234 265 280 285 283 279 278 278 264 259 271
331 336 339 342 343 345 345 348 351 353 343 334 347 335 287 294 281 264 9 347 345 338 325 304 287 290 282 292 346 287 305 282 209 232 200 196 244 242 254 268 277 272 275 274 272 272 259
333 336 337 339 340 341 343 344 348 349 357 321 305 314 300 309 306 336 355 338 303 300 308 305 304 315 339 356 320 299 278 298 281 234 231 254 245 254 262 265 267 285 297 308 309 297 284
330 325 330 337 338 338 337 339 343 340 342 321 300 306 307 309 303 325 359 316 322 286 232 241 266 34 352 317 296 273 258 259 254 257 238 309 287 304 311 282 272 268 307 4 9 313 320
329 328 328 330 332 333 336 339 341 336 335 318 300 312 280 294 352 348 323 290 337 352 314 252 106 63 312 274 250 244 250 257 206 260 232 214 260 224 203 248 267 351 345 347 288 253 360
333 331 332 335 337 337 336 336 339 334 331 321 283 297 281 284 257 355 8 340 327 329 281 32 354 335 338 279 269 271 273 266 257 246 212 217 224 211 232 267 300 352 348 311 235 340 346
331 329 331 334 336 337 336 333 335 332 330 329 294 280 273 297 301 1 3 10 355 5 338 358 304 131 270 259 272 288 297 327 305 4 313 51 289 334 351 312 249 2 7 24 345 337 349
328 329 330 331 328 329 331 330 329 328 326 334 275 328 218 255 311 321 308 356 12 352 335 314 307 298 352 324 18 310 338 299 287 306 40 61 43 341 13 327 171 70 144 206 332 327 331